Location: ???? ??
(36.0534°N, 43.5630°E)
Time: 01:29:33
(UTC+00:00)

SJ-6B - Pass Details

Date: 18 September 2019
Orbit: 509 x 583 km, 97.6° (Epoch: 19 October)

Event Time Altitude Azimuth Distance (km) Brightness Sun altitude
Exits shadow 16:56:24 58° 169° (S) 682 3.0 -22.0°
Maximum altitude 16:57:11 89° 258° (WSW) 587 2.8 -22.2°
Drops below altitude 10° 17:01:19 10° 348° (NNW) 1,896 5.9 -23.0°
Sets 17:03:28 0° 348° (NNW) 2,792 6.9 -23.4°
